Other Public Products
Issued by NWS Charleston, SC

Current Version | Previous Version | Text Only | Print | Product List | Glossary Off
Versions: 1 2 3 4 5 6 7 8 9 10 11 12 13 14 15 16 17 18 19 20 21 22 23 24 25 26 27 28 29 30 31 32 33 34 35 36 37 38 39 40 41 42 43 44 45 46 47 48 49 50
942 FPUS82 KCHS 230012 OPUCHS TEST...KCHS/KSAV Gateway Observations...TEST National Weather Service Charleston SC 800 PM EDT SAT JUL 22 2017 NOTE: "fair" indicates few or no clouds below 12,000 feet with no significant weather and/or obstructions to visibility. SCZ050-WAZ558-NCZ071-TXZ119-213-PAZ071-DCZ001-FLZ074-172-MI076- NYZ176-178-MAZ016-IL014-TNZ027-NJZ106-GAZ044-MD014-230100- ...Gateway Observations for Charleston International... CITY SKY/WX TMP DP RH WIND PRES REMARKS Chas Airport FAIR 84 72 67 S10 29.96S 6HR MIN TEMP: 84; 6HR MAX TEMP: 92; Seattle MOSUNNY 84 61 45 VRB3 30.11F 6HR MIN TEMP: 73; 6HR MAX TEMP: 85; Charlotte MOCLDY 90 70 51 SW9 29.91S HX 95 6HR MIN TEMP: 90; 6HR MAX TEMP: 96; Dallas DFW FAIR 98 68 37 S13 29.81S HX 103 6HR MIN TEMP: 96; 6HR MAX TEMP: 101; Dallas Love FAIR 98 67 36 SE14 29.82F HX 102 6HR MIN TEMP: 96; 6HR MAX TEMP: 100; Philladelphia MOCLDY 82 72 71 E8 29.74S 6HR MIN TEMP: 82; 6HR MAX TEMP: 93; Wash National CLOUDY 77 71 82 CALM 29.79F 6HR MIN TEMP: 74; 6HR MAX TEMP: 94; 6HR PCP: 0.52; Baltimore CLOUDY 73 73 100 SW6 29.77F 6HR MIN TEMP: 73; 6HR MAX TEMP: 94; 6HR PCP: 0.07; Miami CLOUDY 86 73 65 SE7 30.06R HX 93 6HR MIN TEMP: 86; 6HR MAX TEMP: 91; Detroit MOCLDY 81 71 71 NW15 29.76R 6HR MIN TEMP: 81; 6HR MAX TEMP: 89; Newark CLOUDY 80 68 66 SE7 29.76S 6HR MIN TEMP: 80; 6HR MAX TEMP: 92; 6HR PCP: TRACE; Laguardia CLOUDY 83 66 56 SE9 29.76S 6HR MIN TEMP: 82; 6HR MAX TEMP: 91; 6HR PCP: TRACE; J F K CLOUDY 80 72 76 SE5 29.78S 6HR MIN TEMP: 80; 6HR MAX TEMP: 88; 6HR PCP: TRACE; Boston Logan CLOUDY 76 63 64 SE6 29.78S 6HR MIN TEMP: 73; 6HR MAX TEMP: 82; Ft. Lauderdale CLOUDY 84 74 71 SE7 30.05R HX 91 6HR MIN TEMP: 84; 6HR MAX TEMP: 90; Chicago O`Hare PTSUNNY 83 70 64 E6 29.79S 6HR MIN TEMP: 82; 6HR MAX TEMP: 88; Chicago Midway PTSUNNY 83 70 64 E8 29.79S 6HR MIN TEMP: 81; 6HR MAX TEMP: 87; Houston Bush TSTM 75 72 90 NW8 29.91F FOG 6HR MIN TEMP: 74; 6HR MAX TEMP: 94; 6HR PCP: 0.88; Houston Hobby PTSUNNY 89 74 60 S10 29.91R THUNDER HX 98 6HR MIN TEMP: 85; 6HR MAX TEMP: 94; 6HR PCP: 0.01; Nashville FAIR 93 71 48 SW7 29.88R HX 100 6HR MIN TEMP: 93; 6HR MAX TEMP: 98; Atlanta MOCLDY 81 72 74 SW3 29.97F 6HR MIN TEMP: 76; 6HR MAX TEMP: 93; 6HR PCP: TRACE; $$ GAZ044-118-TXZ119-213-NCZ071-DCZ001-MDZ014-506-PAZ021-071-NJZ106- NYZ176-178-MAZ106-OHZ011-021-055-MIZ076-KYZ091-ILZ014-INZ047- MNZ060-ONZ431-230100- ...Gateway Observations for Savannah International... CITY SKY/WX TMP DP RH WIND PRES REMARKS Savannah Arpt FAIR 86 73 65 SW13 29.97S HX 93 6HR MIN TEMP: 86; 6HR MAX TEMP: 92; Atlanta MOCLDY 81 72 74 SW3 29.97F 6HR MIN TEMP: 76; 6HR MAX TEMP: 93; 6HR PCP: TRACE; Charlotte MOCLDY 90 70 51 SW9 29.91S HX 95 6HR MIN TEMP: 90; 6HR MAX TEMP: 96; Dallas DFW FAIR 98 68 37 S13 29.81S HX 103 6HR MIN TEMP: 96; 6HR MAX TEMP: 101; Houston Bush TSTM 75 72 90 NW8 29.91F FOG 6HR MIN TEMP: 74; 6HR MAX TEMP: 94; 6HR PCP: 0.88; Wash National CLOUDY 77 71 82 CALM 29.79F 6HR MIN TEMP: 74; 6HR MAX TEMP: 94; 6HR PCP: 0.52; Wash Dulles CLOUDY 73 71 93 CALM 29.79F 6HR MIN TEMP: 72; 6HR MAX TEMP: 90; 6HR PCP: 0.68; Baltimore CLOUDY 73 73 100 SW6 29.77F 6HR MIN TEMP: 73; 6HR MAX TEMP: 94; 6HR PCP: 0.07; Philadelphia MOCLDY 82 72 71 E8 29.74S 6HR MIN TEMP: 82; 6HR MAX TEMP: 93; Newark CLOUDY 80 68 66 SE7 29.76S 6HR MIN TEMP: 80; 6HR MAX TEMP: 92; 6HR PCP: TRACE; Laguardia CLOUDY 83 66 56 SE9 29.76S 6HR MIN TEMP: 82; 6HR MAX TEMP: 91; 6HR PCP: TRACE; J F K CLOUDY 80 72 76 SE5 29.78S 6HR MIN TEMP: 80; 6HR MAX TEMP: 88; 6HR PCP: TRACE; Boston CLOUDY 76 63 64 SE6 29.78S 6HR MIN TEMP: 73; 6HR MAX TEMP: 82; Pittsburg MOCLDY 74 73 97 S7 29.80F 6HR MIN TEMP: 73; 6HR MAX TEMP: 77; 6HR PCP: 0.20; Akron FAIR 81 72 74 W6 29.80R 6HR MIN TEMP: 76; 6HR MAX TEMP: 82; 6HR PCP: TRACE; Cleveland FAIR 83 73 72 SW7 29.78S 6HR MIN TEMP: 80; 6HR MAX TEMP: 85; 6HR PCP: TRACE; Cincinnati LGT RAIN 80 77 90 W9 29.84R 6HR MIN TEMP: 77; 6HR MAX TEMP: 90; 6HR PCP: 0.23; Columbus FAIR 83 74 73 NW8 29.80R HX 90 Detroit MOCLDY 81 71 71 NW15 29.76R 6HR MIN TEMP: 81; 6HR MAX TEMP: 89; Chicago O`Hare PTSUNNY 83 70 64 E6 29.79S 6HR MIN TEMP: 82; 6HR MAX TEMP: 88; Minneapolis FAIR 87 62 43 NW10 29.81S 6HR MIN TEMP: 86; 6HR MAX TEMP: 91; Indianapolis CLOUDY 84 73 69 N5 29.81S HX 90 6HR MIN TEMP: 84; 6HR MAX TEMP: 90; 6HR PCP: TRACE; Toronto Canada LGT RAIN 72 64 78 VRB2 29.80R $$

USA.gov is the U.S. government's official web portal to all federal, state and local government web resources and services.